Starlink 5553

operational
NORAD ID: 56333 Int'l Des: 2023-058 Owner: SPXS Country: US Constellation: starlink
LEOCIRCULARRETROGRADESSO

关于 Starlink 5553

正在加载描述...

实时位置

正在加载3D地球...

即将过境

高度历史

Altitude vs Time

uPlot chart will show altitude changes over time

两行轨道根数

1 56333U 23058S 26036.25439046 .00000238 00000-0 20741-4 0 9999
2 56333 97.6062 39.2054 0002319 88.0202 272.1291 15.05647883153314
Epoch: Feb 5, 2026 • Age: 9 hours

当前状态

高度 562.8 km
速度 7.58 km/s
星下点 -32.99°S, 35.82°E
发射日期 Apr 27, 2023
运行时间 2.7 years
类型 internet

技术详情

分类 Payload
质量 300.00 kg
干质量 260.00 kg
总质量 300.00 kg
长度 0.20 m
直径 2.80 m
跨度 9.00 m
形状 Box + pan
制造商 SPXS
平台类型 Starlink
阶段状态 In Orbit
所有者/国家 SPXS/US

大型星座

Loading constellations...